Milledgeville, GA

9:56 PM EDT on October 20, 2017 (GMT -0400)
Baldwin County

Weather History for KMLJ - March, 2014

Change the Weather History Date:

Tuesday, March 11, 2014

  Actual Average (KOKZ) Record (KOKZ)
Temperature  
Mean Temperature 63 °F -  
Max Temperature 82 °F 68 °F 83 °F (2016)
Min Temperature 44 °F 41 °F 38 °F (2017)
Degree Days  
Heating Degree Days 2    
Growing Degree Days 13 (Base 50)    
Moisture  
Dew Point 42 °F    
Average Humidity 49    
Maximum Humidity 100    
Minimum Humidity 16    
Precipitation  
Precipitation 0.00 in - - ()
Sea Level Pressure  
Sea Level Pressure 29.84 in    
Wind  
Wind Speed 1 mph (WSW)    
Max Wind Speed 8 mph    
Max Gust Speed -    
Visibility 9 miles    
Events      
Averages and records for this station are not official NWS values.
T = Trace of Precipitation, MM = Missing Value Source: NWS Daily Summary

Daily Weather History Graph

Daily Weather History Graph

Search for Another Location

Airport or City:

Trip Planner

Search our weather history database for the weather conditions in past years. The results will help you decide how hot, cold, wet, or windy it might be!

Date:

Astronomy

Mar. 11, 2014 Rise Set
Actual Time 7:48 AM EDT 7:37 PM EDT
Civil Twilight 7:23 AM EDT 8:02 PM EDT
Nautical Twilight 6:55 AM EDT 8:31 PM EDT
Astronomical Twilight 6:26 AM EDT 9:00 PM EDT
Moon 3:23 PM EDT (3/11) 4:30 AM EDT (3/11)
Length of Visible Light 12h 38m
Length of Day
11h 49m
Waxing Gibbous, 78% of the Moon is Illuminated
Mar 11
Waxing Gibbous
Mar 16
Full
Mar 23
Last Quarter
Mar 30
New
Apr 7
First Quarter

Hourly Weather History & Observations

Time (EDT) Temp. Dew Point Humidity Pressure Visibility Wind Dir Wind Speed Gust Speed Precip Events Conditions
12:15 AM 55.4 °F 44.6 °F 67% 29.94 in 10.0 mi Calm Calm - N/A   Clear
12:35 AM 53.6 °F 46.4 °F 77% 29.94 in 10.0 mi Calm Calm - N/A   Clear
12:55 AM 53.6 °F 46.4 °F 77% 29.93 in 10.0 mi Calm Calm - N/A   Clear
1:15 AM 51.8 °F 50.0 °F 94% 29.93 in 10.0 mi Calm Calm - N/A   Clear
1:35 AM 51.8 °F 50.0 °F 94% 29.92 in 10.0 mi Calm Calm - N/A   Clear
1:55 AM 50.0 °F 50.0 °F 100% 29.92 in 10.0 mi Calm Calm - N/A   Clear
2:15 AM 50.0 °F 50.0 °F 100% 29.92 in 7.0 mi Calm Calm - N/A   Clear
2:35 AM 48.2 °F 48.2 °F 100% 29.92 in 10.0 mi Calm Calm - N/A   Clear
3:00 AM 48.2 °F 48.2 °F 100% 29.91 in 10.0 mi Calm Calm - N/A   Clear
3:15 AM 46.4 °F 46.4 °F 100% 29.91 in 10.0 mi Calm Calm - N/A   Clear
3:35 AM 50.0 °F 50.0 °F 100% 29.91 in 7.0 mi Calm Calm - N/A   Clear
3:55 AM 50.0 °F 50.0 °F 100% 29.89 in 7.0 mi Calm Calm - N/A   Clear
4:15 AM 50.0 °F 50.0 °F 100% 29.88 in 7.0 mi Calm Calm - N/A   Clear
4:35 AM 50.0 °F 50.0 °F 100% 29.87 in 4.0 mi Calm Calm - N/A   Clear
4:55 AM 46.4 °F 46.4 °F 100% 29.87 in 7.0 mi Calm Calm - N/A   Clear
5:15 AM 48.2 °F 46.4 °F 93% 29.87 in 10.0 mi Calm Calm - N/A   Clear
5:35 AM 48.2 °F - N/A% 29.87 in 7.0 mi Calm Calm - N/A   Clear
5:55 AM 46.4 °F - N/A% 29.88 in 3.0 mi Calm Calm - N/A   Clear
6:15 AM 46.4 °F - N/A% 29.88 in 7.0 mi Calm Calm - N/A   Clear
6:35 AM 46.4 °F - N/A% 29.88 in 4.0 mi Calm Calm - N/A   Haze
6:55 AM 46.4 °F - N/A% 29.89 in 7.0 mi Calm Calm - N/A   Clear
7:15 AM 44.6 °F - N/A% 29.89 in 7.0 mi Calm Calm - N/A   Clear
7:40 AM 44.6 °F - N/A% 29.89 in 7.0 mi Calm Calm - N/A   Clear
7:55 AM 44.6 °F - N/A% 29.89 in 2.0 mi Calm Calm - N/A   Clear
8:15 AM 44.6 °F - N/A% 29.90 in 5.0 mi Calm Calm - N/A   Haze
8:35 AM 46.4 °F - N/A% 29.90 in 7.0 mi Calm Calm - N/A   Clear
8:55 AM 50.0 °F - N/A% 29.91 in 7.0 mi Calm Calm - N/A   Clear
9:15 AM 51.8 °F - N/A% 29.91 in 7.0 mi Calm Calm - N/A   Clear
9:35 AM 55.4 °F 55.4 °F 100% 29.91 in 10.0 mi Calm Calm - N/A   Clear
9:55 AM 59.0 °F 55.4 °F 88% 29.91 in 10.0 mi Calm Calm - N/A   Clear
10:15 AM 60.8 °F 44.6 °F 55% 29.91 in 10.0 mi Calm Calm - N/A   Clear
10:35 AM 62.6 °F 44.6 °F 52% 29.91 in 10.0 mi Calm Calm - N/A   Clear
10:55 AM 64.4 °F 44.6 °F 49% 29.91 in 10.0 mi Calm Calm - N/A   Clear
11:15 AM 68.0 °F 42.8 °F 40% 29.90 in 10.0 mi Calm Calm - N/A   Clear
11:35 AM 69.8 °F 41.0 °F 35% 29.90 in 10.0 mi West 3.5 mph - N/A   Clear
11:55 AM 71.6 °F 41.0 °F 33% 29.89 in 10.0 mi West 3.5 mph - N/A   Clear
12:15 PM 73.4 °F 39.2 °F 29% 29.88 in 10.0 mi SW 3.5 mph - N/A   Clear
12:35 PM 73.4 °F 39.2 °F 29% 29.87 in 10.0 mi West 6.9 mph - N/A   Clear
12:55 PM 75.2 °F 37.4 °F 25% 29.87 in 10.0 mi West 4.6 mph - N/A   Clear
1:15 PM 77.0 °F 35.6 °F 22% 29.86 in 10.0 mi WNW 8.1 mph - N/A   Clear
1:35 PM 77.0 °F 35.6 °F 22% 29.86 in 10.0 mi West 5.8 mph - N/A   Clear
1:55 PM 78.8 °F 33.8 °F 20% 29.85 in 10.0 mi WNW 6.9 mph - N/A   Clear
2:15 PM 78.8 °F 33.8 °F 20% 29.83 in 10.0 mi SW 5.8 mph - N/A   Clear
2:35 PM 80.6 °F 32.0 °F 17% 29.82 in 10.0 mi WSW 4.6 mph - N/A   Clear
2:55 PM 80.6 °F 33.8 °F 18% 29.81 in 10.0 mi SSW 4.6 mph - N/A   Clear
3:15 PM 80.6 °F 33.8 °F 18% 29.80 in 10.0 mi Calm Calm - N/A   Clear
3:35 PM 82.4 °F 33.8 °F 17% 29.79 in 10.0 mi SSW 5.8 mph - N/A   Clear
3:55 PM 80.6 °F 32.0 °F 17% 29.78 in 10.0 mi WNW 6.9 mph - N/A   Clear
4:15 PM 80.6 °F 32.0 °F 17% 29.77 in 10.0 mi WSW 3.5 mph - N/A   Clear
4:35 PM 82.4 °F 32.0 °F 16% 29.77 in 10.0 mi SW 5.8 mph - N/A   Scattered Clouds
4:55 PM 82.4 °F 32.0 °F 16% 29.76 in 10.0 mi Calm Calm - N/A   Scattered Clouds
5:15 PM 80.6 °F 32.0 °F 17% 29.75 in 10.0 mi Calm Calm - N/A   Clear
5:35 PM 80.6 °F 32.0 °F 17% 29.75 in 10.0 mi SW 3.5 mph - N/A   Clear
5:55 PM 80.6 °F 33.8 °F 18% 29.75 in 10.0 mi Calm Calm - N/A   Clear
6:15 PM 78.8 °F 35.6 °F 21% 29.75 in 7.0 mi SSW 3.5 mph - N/A   Clear
6:35 PM 78.8 °F 35.6 °F 21% 29.76 in 7.0 mi SSW 3.5 mph - N/A   Clear
6:55 PM 77.0 °F 39.2 °F 26% 29.76 in 7.0 mi Calm Calm - N/A   Clear
7:15 PM 73.4 °F 41.0 °F 31% 29.75 in 10.0 mi Calm Calm - N/A   Clear
7:35 PM 71.6 °F 42.8 °F 35% 29.75 in 1.8 mi Calm Calm - N/A   Haze
7:55 PM 69.8 °F 44.6 °F 40% 29.76 in 7.0 mi Calm Calm - N/A   Clear
8:15 PM 68.0 °F 44.6 °F 43% 29.76 in 10.0 mi Calm Calm - N/A   Clear
8:35 PM 68.0 °F 44.6 °F 43% 29.76 in 10.0 mi Calm Calm - N/A   Clear
8:55 PM 69.8 °F 44.6 °F 40% 29.76 in 10.0 mi Calm Calm - N/A   Clear
9:15 PM 69.8 °F 44.6 °F 40% 29.76 in 10.0 mi Calm Calm - N/A   Scattered Clouds
9:35 PM 69.8 °F 44.6 °F 40% 29.77 in 10.0 mi Calm Calm - N/A   Scattered Clouds
9:55 PM 69.8 °F 44.6 °F 40% 29.77 in 10.0 mi Calm Calm - N/A   Clear
10:15 PM 69.8 °F 44.6 °F 40% 29.77 in 10.0 mi Calm Calm - N/A   Scattered Clouds
10:35 PM 69.8 °F 44.6 °F 40% 29.77 in 10.0 mi Calm Calm - N/A   Clear
10:55 PM 69.8 °F 44.6 °F 40% 29.76 in 10.0 mi Calm Calm - N/A   Scattered Clouds
11:15 PM 69.8 °F 44.6 °F 40% 29.76 in 10.0 mi Calm Calm - N/A   Clear
11:35 PM 69.8 °F 42.8 °F 38% 29.76 in 10.0 mi Calm Calm - N/A   Mostly Cloudy
11:55 PM 69.8 °F 42.8 °F 38% 29.75 in 10.0 mi Calm Calm - N/A   Mostly Cloudy